This demonstration page uses our WeatherBlox Daily Observations layout. Learn more.

Left ArrowRight Arrow

Hourly Observations for May 15, 2020

Temp ( °F °C ) Dew Point ( °F °C ) Humidity (%) Winds ( mph kmh ) Pressure ( in mb ) Visibility ( mi km ) Precip ( " mm )
12:56 am 00:56 Clear 55 12.8 47 8.3 74 74 NE 7 11 29.89 1012 10 16 0.00 0.00
1:56 am 01:56 Clear 53 11.7 47 8.3 80 80 NE 6 9 29.89 1012 10 16 0.00 0.00
2:56 am 02:56 Clear 51 10.6 46 7.8 83 83 N 9 15 29.88 1012 10 16 0.00 0.00
3:56 am 03:56 Clear 53 11.7 47 8.3 80 80 Calm 29.89 1012 10 16 0.00 0.00
4:56 am 04:56 Clear 53 11.7 47 8.3 80 80 NW 6 9 29.95 1014 10 16 0.00 0.00
5:56 am 05:56 Cloudy 53 11.7 48 8.9 83 83 N 7 11 29.95 1014 10 16 0.00 0.00
6:56 am 06:56 Mostly Cloudy with Light Rain 53 11.7 48 8.9 83 83 ENE 10 17 29.94 1014 10 16 0.01 0.25
7:56 am 07:56 Mostly Cloudy 55 12.8 48 8.9 77 77 ENE 7 11 29.98 1015 10 16 0.00 0.00
8:56 am 08:56 Cloudy 57 13.9 48 8.9 72 72 E 9 15 30.01 1016 10 16 0.00 0.00
9:56 am 09:56 Cloudy 59 15 47 8.3 64 64 E 15 24 30.00 1016 10 16 0.00 0.00
10:56 am 10:56 Cloudy 66 18.9 48 8.9 52 52 E 15 24 29.98 1015 10 16 0.00 0.00
11:56 am 11:56 Sunny 68 20 48 8.9 49 49 E 17 28 29.98 1015 10 16 0.00 0.00
12:56 pm 12:56 Partly Cloudy 71 21.7 47 8.3 42 42 ESE 15 24 29.99 1016 10 16 0.00 0.00
1:36 pm 13:36 Partly Cloudy 72 22 48 9 44 44 SE 14 22 29.91 1013 10 16 0.00 0.00
1:56 pm 13:56 Partly Cloudy 72 22.2 49 9.4 44 44 ESE 15 24 29.97 1015 10 16 0.00 0.00
2:56 pm 14:56 Mostly Sunny 74 23.3 49 9.4 41 41 SE 10 17 29.94 1014 10 16 0.00 0.00
3:56 pm 15:56 Partly Cloudy 75 23.9 49 9.4 40 40 ESE 10 17 29.93 1013 10 16 0.00 0.00
4:56 pm 16:56 Sunny 75 23.9 48 8.9 39 39 ESE 8 13 29.91 1013 10 16 0.00 0.00
5:56 pm 17:56 Mostly Sunny 75 23.9 47 8.3 37 37 SE 12 19 29.88 1012 10 16 0.00 0.00
6:56 pm 18:56 Mostly Sunny 74 23.3 47 8.3 38 38 ESE 15 24 29.88 1012 10 16 0.00 0.00
7:56 pm 19:56 Mostly Sunny 72 22.2 48 8.9 43 43 ESE 15 24 29.86 1011 10 16 0.00 0.00
8:56 pm 20:56 Mostly Cloudy 67 19.4 48 8.9 51 51 E 10 17 29.89 1012 10 16 0.00 0.00
9:56 pm 21:56 Mostly Cloudy 66 18.9 49 9.4 54 54 E 15 24 29.92 1013 10 16 0.00 0.00
10:56 pm 22:56 Partly Cloudy 64 17.8 48 8.9 56 56 ESE 15 24 29.93 1014 10 16 0.00 0.00
11:56 pm 23:56 Clear 61 16.1 47 8.3 60 60 ESE 16 26 29.90 1013 10 16 0.00 0.00

Powered by AerisWeather